TimeCDT,TemperatureF,Dew PointF,Humidity,Sea Level PressureIn,VisibilityMPH,Wind Direction,Wind SpeedMPH,Gust SpeedMPH,PrecipitationIn,Events,Conditions,WindDirDegrees,DateUTC
12:15 AM,33.8,26.6,75,29.84,10.0,ESE,9.2,-,N/A,,Overcast,110,2013-03-18 05:15:00
12:35 AM,33.8,26.6,75,29.83,10.0,ESE,9.2,-,N/A,,Overcast,110,2013-03-18 05:35:00
12:55 AM,33.8,28.4,81,29.82,5.0,ESE,8.1,-,N/A,,Overcast,120,2013-03-18 05:55:00
1:15 AM,33.8,28.4,81,29.82,4.0,ESE,9.2,-,N/A,,Overcast,110,2013-03-18 06:15:00
1:35 AM,32.0,28.4,87,29.81,3.0,East,8.1,-,N/A,,Overcast,100,2013-03-18 06:35:00
1:55 AM,32.0,28.4,87,29.80,3.0,ESE,6.9,-,N/A,,Overcast,110,2013-03-18 06:55:00
2:15 AM,32.0,28.4,87,29.81,4.0,SE,3.5,-,0.01,,Overcast,130,2013-03-18 07:15:00
2:35 AM,32.0,28.4,87,29.80,4.0,SE,4.6,-,0.01,,Overcast,130,2013-03-18 07:35:00
2:55 AM,32.0,28.4,87,29.79,3.0,SE,4.6,-,0.01,,Overcast,130,2013-03-18 07:55:00
3:15 AM,30.2,28.4,93,29.76,4.0,ESE,9.2,-,N/A,,Overcast,110,2013-03-18 08:15:00
3:35 AM,30.2,28.4,93,29.76,4.0,SE,4.6,-,N/A,,Overcast,130,2013-03-18 08:35:00
3:55 AM,30.2,28.4,93,29.76,4.0,SSE,3.5,-,N/A,,Overcast,150,2013-03-18 08:55:00
4:15 AM,30.2,28.4,93,29.76,5.0,SSE,4.6,-,N/A,,Overcast,160,2013-03-18 09:15:00
4:35 AM,30.2,28.4,93,29.75,4.0,SE,4.6,-,N/A,,Overcast,140,2013-03-18 09:35:00
4:55 AM,30.2,28.4,93,29.74,5.0,SE,8.1,-,N/A,,Overcast,140,2013-03-18 09:55:00
5:15 AM,30.2,28.4,93,29.74,5.0,SSE,9.2,-,N/A,,Overcast,150,2013-03-18 10:15:00
5:35 AM,30.2,28.4,93,29.76,1.5,South,4.6,-,0.01,Snow,Snow,180,2013-03-18 10:35:00
5:55 AM,30.2,28.4,93,29.75,0.8,SSE,4.6,-,0.01,Snow,Snow,160,2013-03-18 10:55:00
6:15 AM,30.2,28.4,93,29.74,1.0,SSE,4.6,-,0.01,Snow,Light Snow,160,2013-03-18 11:15:00
6:35 AM,30.2,26.6,86,29.74,1.8,SSE,3.5,-,0.01,Snow,Snow,160,2013-03-18 11:35:00
6:55 AM,30.2,28.4,93,29.74,2.0,South,3.5,-,0.04,,Overcast,170,2013-03-18 11:55:00
7:15 AM,30.2,28.4,93,29.73,1.5,South,3.5,-,0.02,Snow,Light Snow,170,2013-03-18 12:15:00
7:35 AM,30.2,28.4,93,29.73,2.0,South,3.5,-,0.03,,Overcast,180,2013-03-18 12:35:00
7:55 AM,32.0,28.4,87,29.73,2.5,South,4.6,-,0.04,,Overcast,180,2013-03-18 12:55:00
8:15 AM,33.8,30.2,87,29.72,2.5,South,4.6,-,0.01,,Overcast,180,2013-03-18 13:15:00
8:35 AM,33.8,30.2,87,29.72,3.0,SSW,5.8,-,0.01,,Overcast,210,2013-03-18 13:35:00
8:55 AM,33.8,30.2,87,29.72,4.0,WSW,6.9,-,0.01,,Overcast,240,2013-03-18 13:55:00
9:15 AM,33.8,30.2,87,29.72,5.0,West,9.2,-,N/A,,Overcast,260,2013-03-18 14:15:00
9:35 AM,33.8,30.2,87,29.72,7.0,West,9.2,-,N/A,,Overcast,260,2013-03-18 14:35:00
9:55 AM,35.6,30.2,81,29.72,10.0,NW,16.1,27.6,N/A,,Overcast,310,2013-03-18 14:55:00
10:15 AM,33.8,26.6,75,29.74,10.0,West,18.4,26.5,N/A,,Overcast,280,2013-03-18 15:15:00
10:35 AM,32.0,24.8,75,29.74,10.0,WNW,17.3,26.5,N/A,,Overcast,290,2013-03-18 15:35:00
10:55 AM,32.0,24.8,75,29.75,10.0,West,15.0,26.5,N/A,,Overcast,280,2013-03-18 15:55:00
11:15 AM,32.0,24.8,75,29.76,10.0,WNW,23.0,27.6,N/A,,Overcast,290,2013-03-18 16:15:00
11:35 AM,33.8,24.8,70,29.76,10.0,WNW,18.4,23.0,N/A,,Mostly Cloudy,300,2013-03-18 16:35:00
11:55 AM,32.0,23.0,69,29.77,10.0,WNW,18.4,27.6,N/A,,Scattered Clouds,290,2013-03-18 16:55:00
12:15 PM,32.0,21.2,64,29.78,10.0,WNW,21.9,29.9,N/A,,Scattered Clouds,300,2013-03-18 17:15:00
12:35 PM,32.0,21.2,64,29.79,10.0,WNW,26.5,32.2,N/A,,Scattered Clouds,290,2013-03-18 17:35:00
12:55 PM,30.2,19.4,64,29.80,10.0,WNW,24.2,36.8,N/A,,Mostly Cloudy,290,2013-03-18 17:55:00
1:15 PM,30.2,19.4,64,29.81,10.0,NW,19.6,29.9,N/A,,Overcast,310,2013-03-18 18:15:00
1:35 PM,28.4,19.4,69,29.82,10.0,WNW,25.3,33.4,N/A,,Overcast,290,2013-03-18 18:35:00
1:55 PM,28.4,19.4,69,29.83,10.0,WNW,20.7,29.9,N/A,,Overcast,300,2013-03-18 18:55:00
2:15 PM,28.4,17.6,64,29.83,10.0,WNW,26.5,34.5,N/A,,Overcast,290,2013-03-18 19:15:00
2:35 PM,28.4,17.6,64,29.84,10.0,WNW,23.0,34.5,N/A,,Overcast,290,2013-03-18 19:35:00
2:55 PM,28.4,17.6,64,29.84,7.0,WNW,21.9,35.7,N/A,Snow,Light Snow,290,2013-03-18 19:55:00
3:15 PM,26.6,15.8,64,29.85,7.0,WNW,31.1,38.0,N/A,Snow,Light Snow,290,2013-03-18 20:15:00
3:35 PM,26.6,14.0,59,29.85,10.0,WNW,25.3,34.5,N/A,,Overcast,300,2013-03-18 20:35:00
3:55 PM,28.4,15.8,59,29.86,10.0,WNW,25.3,34.5,N/A,,Overcast,290,2013-03-18 20:55:00
4:15 PM,26.6,15.8,64,29.87,10.0,WNW,21.9,32.2,N/A,Snow,Light Snow,290,2013-03-18 21:15:00
4:35 PM,26.6,15.8,64,29.88,10.0,West,23.0,35.7,N/A,,Overcast,280,2013-03-18 21:35:00
4:55 PM,26.6,15.8,64,29.88,10.0,WNW,21.9,31.1,N/A,,Overcast,290,2013-03-18 21:55:00
5:15 PM,28.4,14.0,55,29.88,10.0,WNW,23.0,40.3,N/A,,Mostly Cloudy,300,2013-03-18 22:15:00
5:35 PM,26.6,15.8,64,29.89,10.0,West,23.0,35.7,N/A,,Overcast,280,2013-03-18 22:35:00
5:55 PM,26.6,12.2,55,29.90,10.0,WNW,27.6,36.8,N/A,,Overcast,290,2013-03-18 22:55:00
6:15 PM,26.6,12.2,55,29.91,10.0,West,24.2,36.8,N/A,,Overcast,280,2013-03-18 23:15:00
6:35 PM,26.6,12.2,55,29.91,10.0,WNW,21.9,32.2,N/A,,Overcast,300,2013-03-18 23:35:00
7:15 PM,26.6,14.0,59,29.92,10.0,WNW,15.0,27.6,N/A,,Mostly Cloudy,300,2013-03-19 00:15:00
7:35 PM,26.6,15.8,64,29.93,10.0,WNW,18.4,25.3,N/A,,Scattered Clouds,290,2013-03-19 00:35:00
7:55 PM,26.6,15.8,64,29.93,10.0,WNW,12.7,25.3,N/A,,Clear,290,2013-03-19 00:55:00
8:15 PM,26.6,15.8,64,29.94,10.0,WNW,15.0,28.8,N/A,,Clear,290,2013-03-19 01:15:00
8:35 PM,26.6,15.8,64,29.94,10.0,WNW,15.0,18.4,N/A,,Clear,290,2013-03-19 01:35:00
8:55 PM,24.8,15.8,69,29.95,10.0,WNW,19.6,25.3,N/A,,Clear,290,2013-03-19 01:55:00
9:15 PM,26.6,15.8,64,29.96,10.0,WNW,16.1,25.3,N/A,,Clear,300,2013-03-19 02:15:00
9:35 PM,24.8,15.8,69,29.97,10.0,WNW,11.5,23.0,N/A,,Clear,300,2013-03-19 02:35:00
9:55 PM,24.8,14.0,64,29.98,10.0,NW,16.1,24.2,N/A,,Clear,310,2013-03-19 02:55:00
10:15 PM,24.8,12.2,59,29.99,10.0,NW,12.7,24.2,N/A,,Clear,310,2013-03-19 03:15:00
10:55 PM,24.8,12.2,59,29.99,10.0,NW,15.0,25.3,N/A,,Clear,310,2013-03-19 03:55:00
11:15 PM,23.0,12.2,63,29.99,10.0,NW,15.0,19.6,N/A,,Clear,310,2013-03-19 04:15:00
11:35 PM,23.0,12.2,63,29.98,10.0,NW,17.3,21.9,N/A,,Clear,310,2013-03-19 04:35:00
11:55 PM,21.2,10.4,63,29.96,10.0,NW,11.5,18.4,N/A,,Clear,320,2013-03-19 04:55:00